This is the latest recevied weather packets stored in our database for station/object DM4WH-13. If no packets are shown the sender has not sent any weather packets the latest 10 day(s).
| Time | Temp. | Humidity | Pressure | Rain* | Wind** | Luminosity | Snow |
|---|---|---|---|---|---|---|---|
| 1777482922 | 10° C | 30% | 1030.5 hPa | 0 mm | 0.45 m/s, 20° | - | - |
| 1777482609 | 10° C | 29% | 1030.5 hPa | 0 mm | 0.89 m/s, 304° | - | - |
| 1777482321 | 11.11° C | 29% | 1030.4 hPa | 0 mm | 0.45 m/s, 48° | - | - |
| 1777482009 | 11.11° C | 28% | 1030.4 hPa | 0 mm | 0.45 m/s, 20° | - | - |
| 1777481722 | 11.11° C | 28% | 1030.4 hPa | 0 mm | 0.89 m/s, 329° | - | - |
| 1777481409 | 11.11° C | 27% | 1030.4 hPa | 0 mm | 0.89 m/s, 23° | - | - |
| 1777481134 | 11.11° C | 29% | 1030.4 hPa | 0 mm | 0.45 m/s, 23° | - | - |
| 1777480821 | 11.11° C | 27% | 1030.3 hPa | 0 mm | 0.45 m/s, 36° | - | - |
| 1777480509 | 11.11° C | 28% | 1030.3 hPa | 0 mm | 0.45 m/s, 346° | - | - |
| 1777480221 | 11.11° C | 27% | 1030.3 hPa | 0 mm | 0.45 m/s, 38° | - | - |
| 1777479909 | 11.11° C | 27% | 1030.2 hPa | 0 mm | 0.89 m/s, 90° | - | - |
| 1777479621 | 11.11° C | 27% | 1030.2 hPa | 0 mm | 1.34 m/s, 14° | - | - |
| 1777479308 | 12.22° C | 27% | 1030.2 hPa | 0 mm | 1.34 m/s, 16° | - | - |
| 1777479021 | 12.22° C | 28% | 1030.1 hPa | 0 mm | 0.89 m/s, 42° | - | - |
| 1777478709 | 12.22° C | 27% | 1030.1 hPa | 0 mm | 0.45 m/s, 347° | - | - |
| 1777478421 | 12.22° C | 27% | 1030.1 hPa | 0 mm | 0.89 m/s, 276° | - | - |
| 1777478109 | 12.22° C | 26% | 1030.1 hPa | 0 mm | 0.89 m/s, 30° | - | - |
| 1777477821 | 12.22° C | 25% | 1030.2 hPa | 0 mm | 0.89 m/s, 42° | - | - |
| 1777477509 | 12.22° C | 27% | 1030.1 hPa | 0 mm | 0.89 m/s, 192° | - | - |
| 1777477221 | 12.22° C | 25% | 1030 hPa | 0 mm | 0.89 m/s, 286° | - | - |
| 1777476908 | 12.22° C | 26% | 1030 hPa | 0 mm | 0.89 m/s, 288° | - | - |
| 1777476621 | 12.22° C | 25% | 1030 hPa | 0 mm | 0.89 m/s, 28° | - | - |
| 1777476309 | 12.22° C | 25% | 1030 hPa | 0 mm | 1.34 m/s, 0° | - | - |
| 1777476021 | 12.22° C | 26% | 1030.1 hPa | 0 mm | 0.45 m/s, 25° | - | - |
| 1777475709 | 12.22° C | 25% | 1030.1 hPa | 0 mm | 1.79 m/s, 300° | - | - |
* Rain latest hour (hover to see other rain measurements)
** Current wind speed in m/s (hover to see current wind gust speed)